QPF
0.00 0.00 0.00 0.00 0.00 0.00 0.00 0.00 0.00 0.00 0.00 0.00 0.00 0.00 0.00 0.00 0.00 0.00 0.00 0.00 0.00 0.00 0.00 0.00 0.00 0.00 0.00 0.00 0.00 0.00 0.00 0.00 0.00 0.00 0.00 0.01 0.01 0.02 0.01 0.01 0.00 0.00 0.00 0.00
0.00 0.00 0.00 0.00 0.00 0.00 0.00 0.00 0.00 0.00 0.00 0.00 0.00 0.00 0.00 0.00 0.00 0.00 0.00 0.00 0.00 0.00 0.00 0.00 0.00 0.00 0.00 0.00 0.00 0.00 0.00 0.00 0.00 0.00 0.01 0.01 0.03 0.04 0.02 0.01 0.00 0.00 0.00 0.00
0.00 0.00 0.00 0.00 0.00 0.00 0.00 0.00 0.00 0.00 0.00 0.00 0.00 0.00 0.00 0.00 0.00 0.00 0.00 0.00 0.00 0.00 0.00 0.00 0.00 0.00 0.00 0.00 0.00 0.00 0.00 0.00 0.00 0.00 0.04 0.09 0.10 0.05 0.01 0.00 0.00 0.00 0.00 0.00
0.00 0.00 0.00 0.00 0.00 0.00 0.00 0.00 0.00 0.00 0.00 0.00 0.00 0.00 0.00 0.00 0.00 0.00 0.00 0.00 0.00 0.00 0.00 0.00 0.00 0.00 0.00 0.00 0.00 0.00 0.00 0.00 0.00 0.00 0.04 0.06 0.03 0.01 0.00 0.01 0.01 0.01 0.00 0.00
0.00 0.00 0.00 0.00 0.00 0.00 0.00 0.00 0.00 0.00 0.00 0.00 0.00 0.00 0.00 0.00 0.00 0.00 0.00 0.00 0.00 0.00 0.00 0.00 0.00 0.00 0.00 0.00 0.00 0.00 0.00 0.00 0.00 0.00 0.00 0.00 0.02 0.04 0.04 0.04 0.02 0.02 0.00 0.00
0.00 0.00 0.00 0.00 0.00 0.00 0.00 0.00 0.00 0.00 0.00 0.00 0.00 0.00 0.00 0.00 0.00 0.00 0.00 0.00 0.00 0.00 0.00 0.00 0.00 0.00 0.00 0.00 0.00 0.00 0.00 0.00 0.00 0.00 0.00 0.00 0.04 0.05 0.05 0.05 0.03 0.02 0.01 0.00
0.00 0.00 0.00 0.00 0.00 0.00 0.00 0.00 0.00 0.00 0.00 0.00 0.00 0.00 0.00 0.00 0.00 0.00 0.00 0.00 0.00 0.00 0.00 0.00 0.00 0.00 0.00 0.00 0.00 0.00 0.00 0.00 0.00 0.00 0.00 0.00 0.02 0.02 0.03 0.04 0.03 0.02 0.01 0.00
0.00 0.00 0.00 0.00 0.00 0.00 0.00 0.00 0.00 0.00 0.00 0.00 0.00 0.00 0.00 0.00 0.00 0.00 0.00 0.00 0.00 0.00 0.00 0.00 0.00 0.00 0.00 0.00 0.00 0.00 0.00 0.00 0.00 0.00 0.00 0.00 0.02 0.05 0.04 0.04 0.04 0.02 0.00 0.00
0.00 0.00 0.00 0.00 0.00 0.00 0.00 0.00 0.00 0.00 0.00 0.00 0.00 0.00 0.00 0.00 0.00 0.00 0.00 0.00 0.00 0.00 0.00 0.00 0.00 0.00 0.00 0.00 0.00 0.00 0.00 0.00 0.00 0.00 0.00 0.00 0.02 0.05 0.06 0.04 0.03 0.01 0.00 0.00
0.00 0.00 0.00 0.00 0.00 0.00 0.00 0.00 0.00 0.00 0.00 0.00 0.00 0.00 0.00 0.00 0.00 0.00 0.00 0.00 0.00 0.00 0.00 0.00 0.00 0.00 0.00 0.00 0.00 0.00 0.00 0.00 0.00 0.00 0.00 0.00 0.02 0.05 0.07 0.06 0.03 0.01 0.00 0.00
0.00 0.00 0.00 0.00 0.00 0.00 0.00 0.00 0.00 0.00 0.00 0.00 0.00 0.00 0.00 0.00 0.00 0.00 0.00 0.00 0.00 0.00 0.00 0.00 0.00 0.00 0.00 0.00 0.00 0.00 0.00 0.00 0.00 0.00 0.00 0.00 0.01 0.01 0.03 0.02 0.02 0.01 0.00 0.00
0.00 0.00 0.00 0.00 0.00 0.00 0.00 0.00 0.00 0.00 0.00 0.00 0.00 0.00 0.00 0.00 0.00 0.00 0.00 0.00 0.00 0.00 0.00 0.00 0.00 0.00 0.00 0.00 0.00 0.00 0.00 0.00 0.00 0.00 0.00 0.00 0.01 0.00 0.00 0.00 0.01 0.00 0.00 0.00
0.00 0.00 0.00 0.00 0.00 0.00 0.00 0.00 0.00 0.00 0.00 0.00 0.00 0.00 0.00 0.00 0.00 0.00 0.00 0.00 0.00 0.00 0.00 0.00 0.00 0.00 0.00 0.00 0.00 0.00 0.00 0.00 0.00 0.00 0.01 0.01 0.00 0.00 0.00 0.00 0.00 0.00 0.00 0.00
0.00 0.00 0.00 0.00 0.00 0.00 0.00 0.00 0.00 0.00 0.00 0.00 0.00 0.00 0.00 0.00 0.00 0.00 0.00 0.00 0.00 0.00 0.00 0.00 0.00 0.00 0.02 0.01 0.01 0.01 0.00 0.00 0.00 0.00 0.00 0.00 0.00 0.00 0.00 0.00 0.00 0.00 0.00 0.00
0.00 0.00 0.00 0.00 0.00 0.00 0.00 0.00 0.00 0.00 0.00 0.00 0.00 0.00 0.00 0.00 0.00 0.00 0.00 0.00 0.00 0.00 0.00 0.00 0.00 0.02 0.02 0.02 0.03 0.02 0.01 0.00 0.00 0.00 0.00 0.00 0.00 0.00 0.00 0.00 0.00 0.00 0.00 0.00
0.00 0.00 0.00 0.00 0.00 0.00 0.00 0.00 0.00 0.00 0.00 0.00 0.00 0.00 0.00 0.00 0.00 0.00 0.00 0.00 0.01 0.02 0.03 0.02 0.03 0.02 0.04 0.05 0.04 0.02 0.02 0.01 0.00 0.00 0.00 0.00 0.00 0.00 0.00 0.00 0.00 0.00 0.00 0.00
0.00 0.00 0.00 0.00 0.00 0.00 0.00 0.00 0.00 0.00 0.00 0.00 0.00 0.00 0.00 0.00 0.00 0.00 0.00 0.00 0.01 0.01 0.02 0.02 0.01 0.03 0.05 0.05 0.03 0.01 0.00 0.00 0.00 0.00 0.00 0.00 0.00 0.00 0.00 0.00 0.00 0.00 0.00 0.00
0.00 0.00 0.00 0.00 0.00 0.00 0.00 0.00 0.00 0.00 0.00 0.00 0.00 0.00 0.00 0.00 0.00 0.00 0.00 0.00 0.00 0.00 0.00 0.00 0.00 0.01 0.01 0.02 0.01 0.00 0.00 0.00 0.00 0.00 0.00 0.00 0.00 0.00 0.00 0.00 0.00 0.00 0.00 0.00
0.00 0.00 0.00 0.00 0.00 0.00 0.00 0.00 0.00 0.00 0.00 0.00 0.00 0.00 0.00 0.00 0.00 0.00 0.00 0.00 0.00 0.00 0.00 0.00 0.00 0.00 0.00 0.00 0.00 0.00 0.00 0.00 0.00 0.00 0.00 0.00 0.00 0.00 0.00 0.00 0.00 0.00 0.00 0.00
0.00 0.00 0.00 0.00 0.00 0.00 0.00 0.00 0.00 0.00 0.00 0.00 0.00 0.00 0.00 0.00 0.00 0.00 0.00 0.00 0.00 0.00 0.00 0.00 0.00 0.00 0.00 0.00 0.00 0.00 0.00 0.00 0.00 0.00 0.00 0.00 0.00 0.00 0.00 0.00 0.00 0.00 0.00 0.00
0.00 0.00 0.00 0.00 0.00 0.00 0.00 0.00 0.00 0.00 0.00 0.00 0.00 0.00 0.00 0.00 0.00 0.00 0.00 0.00 0.00 0.00 0.00 0.00 0.00 0.00 0.00 0.00 0.00 0.00 0.00 0.00 0.00 0.00 0.00 0.00 0.00 0.00 0.00 0.00 0.00 0.00 0.00 0.00
0.00 0.00 0.00 0.00 0.00 0.00 0.00 0.00 0.00 0.00 0.00 0.00 0.00 0.00 0.00 0.00 0.00 0.00 0.00 0.00 0.00 0.00 0.00 0.00 0.00 0.00 0.00 0.00 0.00 0.00 0.00 0.00 0.00 0.00 0.00 0.00 0.00 0.00 0.00 0.00 0.00 0.00 0.00 0.00
0.00 0.00 0.00 0.00 0.00 0.00 0.00 0.00 0.00 0.00 0.00 0.00 0.00 0.00 0.00 0.00 0.00 0.00 0.00 0.00 0.00 0.00 0.00 0.00 0.00 0.00 0.00 0.00 0.00 0.00 0.00 0.00 0.00 0.00 0.00 0.00 0.00 0.00 0.00 0.00 0.00 0.00 0.00 0.00
0.00 0.00 0.00 0.00 0.00 0.00 0.00 0.00 0.00 0.00 0.00 0.00 0.00 0.00 0.00 0.00 0.00 0.00 0.00 0.00 0.00 0.00 0.00 0.00 0.00 0.00 0.00 0.00 0.00 0.00 0.00 0.00 0.00 0.00 0.00 0.00 0.00 0.00 0.00 0.00 0.00 0.00 0.00 0.00
0.00 0.00 0.00 0.00 0.00 0.00 0.00 0.00 0.00 0.00 0.00 0.00 0.00 0.00 0.00 0.00 0.00 0.00 0.00 0.00 0.00 0.00 0.00 0.00 0.00 0.00 0.00 0.00 0.00 0.00 0.00 0.00 0.00 0.00 0.00 0.00 0.00 0.00 0.00 0.00 0.00 0.00 0.00 0.00
0.00 0.00 0.00 0.00 0.00 0.00 0.00 0.00 0.00 0.00 0.00 0.00 0.00 0.00 0.00 0.00 0.00 0.00 0.00 0.00 0.00 0.00 0.00 0.00 0.00 0.00 0.00 0.00 0.00 0.00 0.00 0.00 0.00 0.00 0.00 0.00 0.00 0.00 0.00 0.00 0.00 0.00 0.00 0.00
0.00 0.00 0.00 0.00 0.00 0.00 0.00 0.00 0.00 0.00 0.00 0.00 0.00 0.00 0.00 0.00 0.00 0.00 0.00 0.00 0.00 0.00 0.00 0.00 0.00 0.00 0.00 0.00 0.00 0.00 0.00 0.00 0.00 0.00 0.00 0.00 0.00 0.00 0.00 0.00 0.00 0.00 0.00 0.00
MSLP
1014.44 1013.67 1013.30 1012.93 1012.53 1012.35 1012.08 1011.61 1011.03 1008.84 1008.04 1005.44 1005.21 1005.11 1005.67 1005.45 1005.11 1004.70 1004.11 1003.57 1002.96 1002.47 1002.04 1001.80 1001.57 1001.19 1000.76 1000.37 1000.22 999.99 999.78 999.96 1000.22 1000.53 1001.12 1001.84 1002.62 1003.34 1004.08 1004.89 1005.53 1006.29 1007.32 1008.59
1014.53 1013.69 1013.08 1012.47 1011.53 1010.70 1010.45 1010.34 1009.90 1008.76 1007.61 1005.61 1004.30 1005.16 1004.86 1005.17 1005.05 1004.42 1003.94 1003.45 1002.95 1002.48 1002.05 1001.73 1001.51 1001.18 1000.79 1000.35 1000.36 1000.26 1000.09 1000.12 1000.50 1000.91 1001.34 1001.94 1002.72 1003.48 1004.32 1005.08 1005.64 1006.47 1007.46 1008.36
1014.59 1013.86 1013.02 1011.67 1008.87 1009.00 1008.63 1008.27 1008.09 1007.47 1006.27 1005.03 1004.82 1004.71 1004.09 1004.48 1004.49 1004.31 1003.77 1003.06 1002.72 1002.37 1001.90 1001.87 1001.56 1001.40 1000.91 1000.39 1000.04 1000.13 1000.04 1000.36 1000.66 1001.12 1001.64 1002.23 1002.90 1003.68 1004.34 1005.08 1005.92 1006.61 1007.61 1008.54
1014.81 1014.14 1011.97 1008.94 1008.53 1008.13 1007.88 1007.26 1007.10 1006.72 1005.47 1004.16 1004.00 1003.96 1003.56 1003.81 1003.64 1003.51 1003.35 1003.05 1002.47 1001.96 1001.69 1001.63 1001.34 1001.10 1000.79 1000.43 1000.07 1000.01 999.91 1000.24 1000.92 1001.14 1001.68 1002.24 1002.84 1003.37 1004.34 1005.23 1005.82 1006.66 1007.74 1008.97
1014.47 1013.00 1010.42 1009.02 1007.87 1007.47 1007.28 1006.06 1004.69 1004.61 1004.31 1003.34 1002.70 1003.19 1003.09 1003.05 1003.09 1002.79 1002.68 1002.53 1002.29 1001.82 1001.53 1001.12 1000.88 1000.72 1000.50 1000.18 999.85 999.77 1000.07 1000.27 1000.65 1001.32 1001.69 1002.14 1003.04 1003.92 1004.43 1005.44 1006.23 1007.03 1008.20 1009.25
1014.20 1012.78 1010.24 1007.75 1007.07 1006.87 1006.92 1004.87 1004.39 1003.84 1003.68 1003.40 1002.95 1002.84 1001.78 1001.82 1002.14 1002.29 1002.29 1002.10 1001.67 1001.26 1000.87 1000.55 1000.32 1000.30 1000.11 999.88 999.81 999.73 999.66 999.74 1000.08 1000.77 1001.66 1002.32 1002.89 1003.75 1004.65 1005.78 1006.61 1007.43 1008.97 1010.03
1012.85 1011.53 1008.66 1007.42 1006.79 1006.69 1006.36 1004.65 1003.84 1003.74 1003.66 1003.36 1003.05 1002.77 1001.68 1001.58 1001.81 1001.77 1001.51 1001.44 1001.14 1000.81 1000.43 1000.05 999.81 999.76 999.39 999.25 999.50 999.23 999.22 999.48 999.74 1000.28 1001.10 1002.19 1003.09 1003.85 1004.72 1005.96 1007.12 1008.28 1009.32 1010.22
1011.55 1010.05 1007.90 1006.13 1006.18 1005.97 1004.61 1004.11 1004.13 1003.58 1003.27 1003.05 1002.72 1002.29 1001.73 1001.14 1001.18 1000.91 1000.78 1000.56 1000.39 1000.19 999.95 999.65 999.22 999.16 998.66 998.35 998.74 998.83 998.85 998.99 999.24 999.95 1000.92 1001.82 1002.97 1004.18 1004.84 1005.95 1006.81 1008.55 1009.41 1010.40
1009.81 1007.68 1006.39 1005.99 1005.71 1005.28 1004.84 1004.09 1003.90 1003.49 1003.17 1002.85 1002.01 1001.55 1000.92 1000.00 999.88 999.81 999.81 999.56 999.21 999.22 998.96 998.88 998.56 998.43 998.29 997.54 998.36 998.49 998.59 998.77 999.15 999.85 1000.92 1001.67 1002.46 1003.87 1005.09 1005.71 1006.87 1008.05 1009.05 1009.79
1008.42 1006.63 1005.61 1005.34 1004.77 1004.58 1004.07 1003.39 1002.98 1002.73 1002.19 1001.96 1001.16 1000.75 999.91 999.08 998.83 998.66 998.27 998.01 998.09 998.25 997.89 997.66 997.60 997.65 997.58 997.69 998.10 998.07 998.12 998.80 999.41 999.97 1000.89 1001.95 1002.48 1003.41 1004.29 1005.17 1005.98 1007.18 1008.67 1009.33
1006.77 1005.88 1004.84 1004.55 1004.02 1003.55 1002.98 1002.72 1002.05 1001.47 1001.04 1000.60 1000.09 999.30 998.99 998.04 997.71 997.50 997.01 996.86 997.05 996.82 996.58 996.29 996.41 996.76 996.98 997.28 997.47 997.48 997.77 998.74 999.36 999.90 1000.71 1001.85 1002.33 1003.40 1004.26 1004.24 1005.13 1006.20 1007.41 1008.32
1005.68 1004.65 1004.46 1003.23 1003.12 1002.97 1002.39 1001.52 1000.93 1000.39 999.95 999.53 999.14 998.41 997.94 997.09 996.74 996.51 995.91 995.63 995.41 995.29 995.33 995.01 995.35 995.72 996.12 996.55 996.94 997.31 997.62 998.41 999.09 999.82 1000.72 1001.39 1002.17 1004.11 1005.10 1005.02 1005.16 1006.81 1007.71 1008.07
1004.73 1004.28 1003.97 1002.67 1002.61 1002.20 1001.70 1000.86 1000.29 999.82 999.10 998.49 997.78 997.43 996.92 996.37 995.76 995.12 994.84 994.62 994.21 993.72 993.68 993.77 994.07 994.75 995.43 995.86 996.45 996.57 996.81 998.04 998.80 999.45 1000.07 1000.78 1001.85 1003.56 1004.82 1006.36 1006.31 1007.53 1008.54 1009.16
1004.05 1003.93 1003.62 1002.96 1002.48 1002.13 1001.46 1000.65 999.92 999.08 998.38 997.82 997.22 996.59 996.03 995.39 994.72 994.24 993.88 993.52 993.42 993.07 992.77 992.74 993.24 994.05 994.80 995.21 995.98 996.12 996.63 997.62 998.15 999.06 999.50 1000.22 1001.95 1002.84 1004.05 1004.82 1006.40 1007.96 1009.38 1009.73
1003.71 1003.78 1003.64 1003.27 1002.57 1001.73 1001.17 1000.36 999.66 998.95 998.24 997.48 997.02 996.39 995.58 994.81 994.21 993.69 993.33 992.95 992.15 991.75 991.84 992.34 993.06 993.70 994.30 994.90 995.60 995.91 996.71 997.68 998.22 999.00 999.79 1000.64 1001.67 1002.41 1003.72 1004.83 1006.28 1007.91 1009.62 1010.63
1003.39 1003.40 1003.05 1002.78 1002.27 1001.63 1000.95 1000.22 999.54 998.78 998.11 997.32 996.60 995.90 995.57 994.95 994.25 993.83 993.37 992.92 992.46 992.16 992.37 992.74 993.12 993.72 994.26 995.16 995.41 996.21 997.05 997.69 998.41 999.35 1000.24 1001.21 1001.53 1002.20 1003.96 1005.07 1006.21 1007.91 1009.27 1010.42
1003.73 1003.01 1003.01 1002.63 1002.22 1001.48 1000.83 1000.19 999.53 998.66 997.96 997.27 996.83 996.37 995.91 995.30 994.75 994.41 993.88 993.57 993.32 993.16 993.16 993.38 993.73 994.13 994.67 995.28 995.78 996.84 997.39 998.13 998.66 999.60 1000.65 1001.52 1002.20 1002.95 1004.21 1005.45 1006.64 1008.12 1009.31 1010.32
1004.21 1003.84 1003.48 1002.94 1002.15 1001.34 1000.61 1000.04 999.42 998.73 998.17 997.87 997.43 996.98 996.43 995.94 995.56 995.23 994.86 994.52 994.31 994.29 994.38 994.61 994.68 995.01 995.48 995.87 996.60 997.33 998.03 998.69 999.65 1000.12 1000.66 1001.58 1002.93 1003.82 1004.77 1005.82 1007.28 1008.49 1009.79 1011.02
1004.06 1003.59 1003.20 1002.69 1002.08 1001.40 1000.67 1000.03 999.46 999.00 998.72 998.33 997.81 997.48 997.11 996.74 996.43 996.16 995.95 995.69 995.66 995.84 996.14 995.92 996.13 996.34 996.85 997.21 997.71 998.11 999.01 999.56 1000.31 1001.03 1001.80 1002.53 1004.06 1004.97 1005.73 1006.89 1008.05 1009.14 1010.23 1011.30
1003.91 1003.60 1003.11 1002.48 1001.84 1001.29 1000.59 999.98 999.64 999.37 999.14 998.75 998.50 998.17 997.90 997.67 997.46 997.18 997.00 997.14 997.20 997.31 997.30 997.28 997.40 997.70 998.00 998.27 998.52 999.03 999.64 1000.53 1001.21 1002.03 1002.91 1003.76 1004.77 1005.79 1006.76 1007.77 1008.79 1009.82 1010.82 1011.75
1003.97 1003.64 1003.12 1002.41 1001.85 1001.27 1000.70 1000.07 999.83 999.72 999.58 999.36 999.09 999.02 998.76 998.57 998.33 998.23 998.19 998.47 998.72 998.49 998.40 998.46 998.63 998.90 999.10 999.33 999.78 1000.39 1001.00 1001.74 1002.28 1002.95 1003.74 1004.58 1005.61 1006.76 1007.76 1008.71 1009.54 1010.42 1011.53 1012.40
1004.06 1003.78 1003.26 1002.61 1002.10 1001.48 1000.91 1000.46 1000.15 1000.03 1000.00 999.91 999.80 999.69 999.49 999.33 999.31 999.39 999.61 999.66 999.73 999.54 999.61 999.79 999.95 1000.13 1000.35 1000.51 1001.04 1001.74 1002.35 1002.84 1003.39 1004.17 1004.89 1005.70 1006.60 1007.45 1008.41 1009.39 1010.28 1011.26 1012.00 1012.79
1004.03 1003.87 1003.45 1002.93 1002.50 1002.03 1001.53 1001.15 1000.84 1000.62 1000.44 1000.36 1000.38 1000.29 1000.26 1000.22 1000.10 1000.05 1000.43 1000.89 1000.74 1000.75 1000.74 1001.01 1001.24 1001.38 1001.63 1001.94 1002.32 1002.80 1003.31 1003.68 1004.55 1005.20 1005.78 1006.49 1007.26 1008.13 1009.05 1009.99 1010.83 1011.65 1012.46 1013.19
1004.03 1003.93 1003.71 1003.30 1002.89 1002.43 1002.08 1001.89 1001.60 1001.37 1001.11 1001.01 1000.93 1000.94 1000.86 1000.87 1001.11 1001.27 1001.45 1001.66 1001.71 1001.83 1002.12 1002.32 1002.34 1002.43 1002.67 1003.15 1003.51 1003.89 1004.29 1004.46 1005.09 1005.96 1006.72 1007.36 1008.01 1008.77 1009.61 1010.41 1011.21 1012.07 1012.91 1013.63
1004.03 1003.97 1003.80 1003.47 1003.13 1002.94 1002.71 1002.45 1002.21 1002.08 1001.93 1001.84 1001.78 1001.65 1001.57 1001.47 1001.41 1002.15 1002.21 1002.50 1002.56 1002.63 1002.97 1003.19 1003.25 1003.51 1003.74 1004.11 1004.40 1004.68 1005.02 1005.28 1005.94 1006.65 1007.44 1008.06 1008.78 1009.46 1010.22 1010.99 1011.72 1012.45 1013.06 1013.81
1003.80 1003.88 1003.88 1003.71 1003.48 1003.25 1003.09 1002.91 1002.69 1002.58 1002.48 1002.51 1002.55 1002.48 1002.44 1002.34 1002.46 1002.72 1002.98 1003.22 1003.41 1003.59 1003.70 1003.91 1004.11 1004.28 1004.42 1004.53 1004.89 1005.45 1006.02 1006.54 1007.02 1007.56 1008.15 1008.77 1009.32 1009.95 1010.69 1011.38 1012.13 1012.80 1013.60 1014.35
1003.67 1003.80 1003.79 1003.73 1003.59 1003.41 1003.29 1003.23 1003.18 1003.16 1003.10 1003.01 1003.01 1003.12 1003.12 1003.16 1003.33 1003.46 1003.70 1003.92 1004.07 1004.26 1004.35 1004.63 1004.84 1005.01 1005.27 1005.57 1005.93 1006.46 1007.01 1007.39 1007.80 1008.29 1008.78 1009.20 1009.74 1010.34 1011.05 1011.77 1012.43 1013.06 1013.75 1014.49
Thickness
5402 5412 5413 5417 5425 5431 5433 5440 5430 5483 5484 5534 5543 5539 5531 5530 5537 5547 5559 5567 5578 5588 5599 5606 5613 5622 5631 5639 5646 5655 5662 5665 5666 5667 5666 5662 5656 5653 5650 5646 5643 5639 5633 5623
5381 5404 5406 5406 5425 5440 5442 5440 5439 5457 5464 5518 5536 5510 5521 5519 5521 5532 5544 5555 5563 5574 5584 5590 5597 5606 5616 5624 5630 5638 5644 5649 5650 5650 5650 5648 5644 5640 5636 5631 5630 5626 5620 5614
5377 5393 5393 5393 5445 5439 5443 5449 5447 5444 5475 5501 5501 5506 5521 5511 5513 5518 5528 5541 5548 5557 5568 5574 5582 5590 5600 5611 5619 5625 5632 5633 5635 5635 5632 5630 5629 5627 5623 5621 5617 5614 5607 5601
5368 5372 5374 5431 5434 5437 5434 5443 5442 5442 5467 5493 5495 5496 5504 5502 5507 5512 5515 5521 5531 5543 5553 5559 5568 5577 5586 5595 5604 5611 5620 5620 5616 5621 5617 5615 5617 5616 5611 5609 5607 5602 5593 5584
5365 5374 5402 5413 5426 5423 5411 5433 5458 5450 5454 5472 5488 5479 5480 5495 5493 5497 5503 5509 5514 5522 5533 5546 5555 5562 5569 5581 5592 5599 5599 5603 5605 5605 5605 5603 5600 5600 5597 5591 5588 5584 5576 5569
5348 5360 5373 5422 5425 5421 5416 5427 5437 5445 5448 5454 5463 5448 5482 5484 5480 5483 5485 5491 5502 5511 5518 5528 5540 5546 5556 5568 5576 5583 5588 5592 5595 5596 5591 5590 5588 5585 5583 5577 5574 5570 5558 5550
5367 5365 5398 5416 5420 5415 5398 5423 5437 5437 5435 5437 5435 5440 5462 5464 5460 5463 5473 5476 5483 5491 5503 5513 5520 5531 5544 5556 5562 5570 5577 5581 5584 5585 5582 5577 5573 5571 5569 5563 5556 5549 5542 5534
5365 5369 5380 5421 5412 5406 5425 5425 5421 5425 5427 5426 5430 5434 5437 5446 5445 5451 5453 5462 5468 5474 5484 5495 5504 5511 5530 5545 5546 5554 5564 5569 5574 5573 5568 5564 5558 5553 5552 5548 5543 5532 5527 5520
5383 5399 5414 5407 5404 5406 5407 5411 5412 5415 5419 5418 5423 5427 5433 5442 5444 5442 5442 5449 5458 5460 5470 5478 5488 5495 5506 5528 5525 5534 5543 5550 5555 5556 5551 5549 5546 5539 5536 5534 5528 5521 5514 5511
5386 5406 5410 5406 5409 5405 5406 5407 5409 5411 5415 5415 5419 5422 5429 5437 5439 5440 5446 5448 5449 5445 5454 5463 5473 5479 5489 5497 5503 5515 5528 5531 5533 5535 5534 5530 5532 5528 5526 5525 5521 5513 5503 5501
5392 5402 5407 5406 5406 5407 5409 5407 5410 5414 5415 5416 5418 5425 5427 5436 5438 5440 5445 5446 5442 5444 5448 5456 5463 5464 5469 5475 5486 5502 5509 5511 5517 5520 5521 5517 5520 5515 5513 5519 5515 5509 5499 5494
5389 5406 5402 5410 5408 5406 5407 5412 5414 5415 5414 5415 5417 5423 5428 5435 5437 5438 5442 5444 5445 5445 5444 5453 5451 5451 5455 5461 5472 5482 5488 5494 5502 5504 5503 5506 5507 5495 5491 5499 5502 5488 5481 5484
5393 5399 5400 5409 5408 5407 5406 5410 5411 5411 5415 5416 5422 5423 5427 5430 5435 5437 5437 5435 5437 5442 5443 5446 5444 5441 5437 5447 5458 5473 5482 5480 5487 5491 5493 5496 5494 5486 5478 5472 5478 5470 5465 5463
5394 5392 5391 5399 5398 5397 5399 5403 5407 5412 5412 5414 5418 5423 5426 5429 5432 5433 5431 5427 5423 5423 5427 5431 5429 5428 5426 5432 5443 5461 5471 5471 5478 5481 5485 5487 5479 5479 5473 5474 5467 5456 5446 5445
5389 5383 5380 5382 5388 5394 5396 5399 5401 5402 5404 5410 5412 5416 5421 5424 5425 5425 5423 5419 5423 5422 5419 5417 5416 5417 5417 5426 5436 5451 5458 5460 5465 5467 5470 5470 5468 5468 5464 5460 5451 5441 5429 5424
5384 5382 5383 5381 5382 5385 5389 5391 5393 5394 5396 5403 5407 5411 5408 5410 5413 5413 5412 5411 5411 5407 5403 5405 5408 5410 5418 5425 5435 5440 5445 5448 5451 5452 5451 5450 5455 5455 5447 5443 5438 5428 5420 5415
5368 5377 5373 5373 5375 5380 5381 5383 5387 5391 5394 5401 5399 5398 5397 5398 5399 5397 5399 5402 5402 5402 5402 5403 5408 5412 5419 5423 5429 5429 5434 5437 5441 5440 5435 5434 5435 5437 5432 5427 5422 5413 5408 5403
5359 5361 5362 5366 5370 5374 5377 5379 5383 5386 5391 5388 5387 5387 5387 5386 5382 5381 5386 5391 5395 5396 5396 5397 5403 5407 5409 5417 5419 5420 5423 5426 5425 5425 5424 5421 5418 5418 5416 5414 5406 5400 5392 5385
5355 5358 5360 5361 5364 5367 5372 5376 5377 5380 5381 5381 5382 5381 5378 5374 5373 5375 5378 5384 5387 5388 5388 5392 5395 5400 5401 5402 5406 5411 5412 5414 5413 5411 5409 5407 5401 5402 5401 5395 5390 5384 5377 5371
5351 5353 5355 5358 5361 5363 5368 5371 5373 5376 5375 5377 5376 5377 5373 5368 5368 5371 5373 5374 5377 5380 5382 5386 5389 5390 5391 5392 5395 5398 5400 5399 5399 5398 5394 5392 5389 5386 5383 5378 5374 5369 5364 5360
5344 5345 5349 5354 5357 5360 5364 5368 5371 5373 5372 5372 5373 5372 5369 5364 5366 5367 5369 5368 5367 5371 5375 5377 5380 5381 5383 5385 5387 5385 5387 5385 5386 5386 5384 5381 5377 5371 5368 5364 5362 5359 5352 5347
5337 5338 5343 5349 5352 5357 5360 5364 5367 5368 5369 5369 5369 5369 5369 5367 5363 5360 5359 5360 5360 5364 5365 5366 5367 5369 5371 5375 5375 5374 5373 5374 5373 5371 5370 5368 5365 5363 5359 5356 5352 5347 5343 5338
5334 5333 5338 5343 5346 5349 5353 5357 5360 5362 5364 5364 5364 5365 5365 5364 5365 5364 5358 5353 5355 5355 5357 5357 5356 5359 5360 5361 5362 5363 5363 5365 5362 5362 5360 5359 5357 5354 5350 5345 5341 5337 5332 5328
5331 5330 5332 5336 5339 5344 5349 5350 5352 5354 5356 5357 5357 5357 5361 5361 5359 5357 5355 5353 5352 5351 5349 5349 5351 5353 5354 5354 5355 5356 5356 5358 5357 5352 5349 5348 5347 5345 5340 5336 5332 5328 5323 5319
5327 5326 5328 5332 5337 5338 5340 5344 5346 5347 5348 5349 5349 5351 5354 5356 5358 5351 5351 5349 5350 5351 5349 5348 5349 5348 5348 5347 5347 5348 5348 5350 5348 5345 5341 5339 5337 5334 5330 5327 5323 5320 5318 5315
5326 5323 5323 5325 5329 5332 5333 5336 5339 5340 5341 5341 5340 5342 5344 5346 5345 5344 5344 5343 5342 5342 5344 5342 5341 5341 5342 5343 5343 5341 5338 5337 5336 5335 5333 5330 5328 5325 5322 5319 5316 5313 5310 5307
5322 5318 5319 5320 5323 5326 5328 5329 5331 5332 5332 5333 5334 5333 5335 5336 5335 5335 5334 5333 5333 5333 5334 5333 5332 5333 5333 5333 5332 5330 5328 5327 5326 5325 5323 5323 5322 5320 5317 5314 5312 5310 5307 5303